Showing default

SIT-HSE, 61763

Orbit data source: Space-Track

SIT-HSE, 61763 is a Commonwealth of Independent States-origin payload satellite in SSO that was launched on Mon, 04 Nov 2024 UTC via a SOYUZ-2-1B launch vehicle from the Vostochny Cosmodrome (VOSTO). Payload-class satellites include a variety of spacecraft equipped with specific instruments for various scientific and technological missions. These include communications satellites like Starlink; space stations such as the ISS; scientific satellites like the Hubble; Earth observation satellites from companies like Planet Labs, Umbra, and HawkEye 360; GPS; miniature CubeSats for education and research; and military/defense satellites.

Not visible in the next 10 days
Identifier
61763, 2024-199AE
Orbit
SSO
Country
Flag of CISCIS
Related business
Manufacturer
Sputniks
Mission
Operational Amateur Technology
Bus & Motor
CUBESAT 3U, Unknown motor
Mass
3 kg wet, 3 kg dry
Launch date (UTC)
2024-11-04 (2 years ago)
Launch vehicle
SOYUZ-2-1B
Launch site
Vostochny Cosmodrome (VOSTO)
Object type
Payload
Rocket body
Debris
Shape & HBR
Box, 0.2 m
Radar Cross Section
0.035 m², Medium (>0.1 m² and < 1m²)

Expand to show TLE details & history
Last TLE update: 10 hours ago

TLE from 10 hours ago
0 SIT-HSE
1 61763U 24199AE  26264.25479773  .00036193  00000-0  45588-3 0  9997
2 61763  97.2787 142.4643 0001487 297.5861  62.5244 15.59549372152525
Epoch: 2026-09-21T06:06Z
TLE epoch observation values (Epoch: 2026-09-21T06:06:54.523Z)
Latitude
-0.00012°
Longitude
50.59988°
Altitude
391.644 km
Speed
7.675 km/s
True Right ascension
09h 29m 51s
True Declination
0° 00' 00"
Sunlit
Object was in daylight at epoch
Visualization orbit readout
Latitude
Unknown
Longitude
Unknown
Altitude
Unknown
Speed
Unknown
Apparent Right ascension
Unknown
Apparent Declination
Unknown
Sunlit
N/A
Visualization observer readout
Local Sidereal Time
08:59:08
Azimuth
Unknown
Elevation
Unknown
Doppler factor
Unknown
Orbital elements
Apogee altitude
386.874 km
Perigee altitude
384.862 km
Semi-major axis
6,764.005 km
Eccentricity
0.00015
Inclination
97.2787°
RAAN
142.4643°
Arg. of periapsis
297.5861°
True anomaly
62.53952°
Mean anomaly
62.5244°
Eccentric anomaly
62.53196°
Mean motion
3.90155 °/min
Orbital period
92.27 mins
BSTAR
0.00045588
Loading maneuver chart data...
Computing Atmospheric mass density...
Loading historical data...
Loading historical data...
Loading historical data...
Loading historical data...
Loading historical data...
Loading historical data...
Loading historical data...

Documentation

Showing up to 5 results
|